Temp
9 9 9 9 9 9 9 9 9 8 8 9 9 9 9 9 8 8 8 9 9 9 9 8 8 8 7 8 8 8 8 8 8 9 9 9 9 8 8 8 9 9 9
9 9 8 8 8 8 8 8 8 8 8 8 8 9 8 9 8 8 8 8 8 9 9 9 8 9 7 8 7 8 8 8 8 9 9 9 9 8 8 8 8 9 9
8 8 8 8 7 8 8 7 7 7 6 6 6 7 7 8 8 8 8 7 7 8 9 9 8 7 8 7 8 7 8 9 8 9 9 9 9 8 8 8 8 9 10
8 8 8 7 7 7 6 6 5 5 5 5 5 6 7 7 8 8 8 8 7 7 8 8 8 9 8 8 8 9 9 10 9 8 9 9 9 9 8 8 8 9 9
8 7 7 7 7 6 5 4 4 4 4 6 6 6 7 7 7 7 8 8 8 6 7 7 8 8 8 9 7 8 7 9 9 9 9 9 9 9 9 8 9 9 9
7 7 7 7 6 5 3 3 4 4 4 4 5 6 6 7 6 6 7 8 8 7 7 8 8 8 8 8 8 7 7 7 9 8 9 10 9 9 9 8 9 9 9
7 7 6 6 5 3 3 3 3 3 4 4 5 5 6 6 6 6 6 6 6 7 7 7 7 8 8 7 6 5 6 6 7 8 9 10 9 9 8 8 8 9 9
7 6 6 5 3 2 3 3 3 3 3 4 5 5 6 6 6 6 6 6 6 7 8 8 8 8 8 7 6 6 7 6 6 8 9 9 9 9 8 8 8 9 9
6 5 5 3 2 3 3 3 2 3 2 4 5 5 5 6 6 6 6 6 7 8 7 7 7 8 8 6 6 5 6 6 6 7 8 8 8 9 8 8 9 9 9
6 5 3 2 2 2 2 3 2 3 1 4 4 5 6 6 6 6 6 7 7 7 7 7 7 7 7 6 7 6 6 6 6 6 7 8 8 8 8 7 8 9 8
4 4 3 2 2 1 2 2 2 1 1 3 4 5 5 5 6 6 6 6 6 6 6 7 7 7 7 7 7 6 6 7 7 7 7 7 8 8 8 8 8 8 8
4 3 2 2 2 1 1 1 2 2 2 1 4 5 5 5 5 6 6 6 6 6 6 6 7 7 7 7 6 7 6 6 7 7 7 8 8 8 8 8 8 7 8
3 2 1 1 1 1 1 1 0 0 1 1 1 3 4 5 5 5 5 6 5 6 6 6 6 6 6 6 7 6 7 7 7 7 8 7 8 8 7 6 6 6 7
3 2 1 1 2 0 1 1 1 1 1 1 1 1 2 4 4 5 5 5 5 5 5 5 5 5 6 6 6 6 6 7 7 7 7 7 7 8 8 6 6 6 6
3 2 1 1 1 1 1 1 1 0 1 -1 -0 1 2 2 2 1 4 5 5 5 5 5 5 5 5 5 5 6 5 6 6 6 6 6 6 7 7 6 5 5 5
3 2 2 2 2 2 1 0 0 0 -0 0 -0 1 0 1 0 2 4 4 4 4 4 4 4 4 5 4 4 2 3 5 5 5 5 5 5 5 5 5 5 5 4
2 2 2 2 2 1 1 0 0 0 0 -1 -1 -0 2 1 1 1 1 3 4 4 4 4 4 4 4 4 4 3 4 3 3 3 3 4 4 4 4 4 4 3 4
2 2 2 0 0 1 1 1 0 -0 -0 -0 -0 -0 -0 1 1 1 1 1 2 2 2 3 3 3 3 3 3 3 3 4 4 3 4 4 4 4 4 4 4 4 4
2 2 1 0 0 0 0 0 -0 -0 -0 -0 -0 -0 -0 -0 -0 -0 0 1 0 0 1 1 1 1 1 1 2 2 2 2 2 2 3 3 3 3 3 3 3 3 4
1 0 0 -0 0 0 0 -0 -0 -0 -0 -0 -0 -0 -0 -1 -0 -0 -0 -1 -1 -1 -1 -0 -0 -0 -1 -0 -0 0 0 0 1 1 1 1 2 2 2 2 2 2 3
0 0 0 1 -0 0 -0 -0 -0 -0 -0 0 -0 -0 -0 -0 -0 -0 -1 -1 -1 -1 -1 -1 -1 -1 -1 -0 0 -0 0 -0 -0 -0 -0 -0 -0 0 -0 -0 0 0 1
0 0 0 0 -0 -0 -1 -1 -1 -1 -1 -1 -1 -1 -1 -1 -1 -1 -0 -0 -0 -0 -0 -0 -0 -0 -1 -1 -1 -0 0 -0 -0 0 -0 0 -1 -0 -1 -1 -1 -1 -0
-0 0 0 -0 -1 -1 -1 -1 -1 -1 -1 -1 -1 -1 -0 -0 0 0 1 1 1 1 1 1 1 1 1 1 0 0 -0 -0 -1 -1 -1 -1 -1 -1 -1 -1 -1 -1 -1
0 -0 -0 -1 -1 -2 -2 -2 -2 -2 -1 -1 -0 -0 0 1 1 1 1 1 1 1 1 1 1 1 1 1 1 1 0 0 0 0 0 -1 -3 -2 -1 -2 -2 -1 -1
-1 -1 -2 -2 -2 -2 -1 -1 -0 -0 -0 0 0 1 1 1 1 1 1 1 1 1 1 1 1 1 1 1 0 0 -0 -0 -0 -1 -1 -1 -1 -1 -1 -1 -1 -1 -2
-1 -1 -1 -1 -1 -0 0 0 0 1 1 1 1 1 1 1 1 1 1 1 1 1 1 1 1 1 1 0 0 -0 -0 -0 -1 -1 -1 -1 -1 -1 -1 -1 -1 -1 -1
Height
3161 3156 3150 3146 3140 3136 3131 3127 3123 3120 3118 3115 3114 3114 3114 3115 3116 3117 3117 3120 3121 3124 3126 3123 3112 3135 3138 3141 3145 3149 3151 3151 3150 3156 3160 3163 3163 3164 3165 3164 3164 3165 3168
3150 3145 3141 3135 3130 3125 3121 3117 3111 3107 3103 3101 3099 3098 3097 3099 3101 3103 3104 3107 3107 3112 3115 3115 3115 3124 3126 3127 3133 3136 3139 3141 3142 3144 3151 3153 3156 3156 3156 3156 3157 3158 3160
3142 3136 3131 3125 3119 3114 3109 3105 3100 3094 3089 3086 3083 3081 3080 3083 3085 3088 3091 3094 3096 3100 3103 3105 3108 3108 3111 3115 3122 3116 3124 3129 3132 3133 3140 3143 3147 3148 3148 3147 3150 3152 3154
3133 3127 3121 3116 3111 3105 3099 3093 3088 3083 3077 3072 3068 3064 3064 3064 3068 3073 3077 3081 3083 3089 3093 3096 3099 3098 3098 3098 3110 3113 3115 3117 3121 3124 3129 3133 3137 3140 3140 3141 3142 3145 3146
3125 3119 3113 3107 3101 3094 3088 3083 3077 3071 3064 3056 3050 3046 3047 3048 3052 3057 3062 3067 3072 3076 3081 3085 3087 3088 3088 3089 3092 3092 3098 3106 3111 3114 3118 3123 3128 3131 3134 3136 3136 3137 3138
3117 3111 3105 3099 3093 3086 3081 3075 3068 3061 3053 3043 3036 3031 3030 3034 3039 3043 3046 3052 3059 3064 3070 3074 3077 3079 3080 3080 3080 3080 3084 3090 3096 3104 3109 3112 3120 3123 3126 3128 3129 3129 3131
3110 3105 3098 3092 3086 3080 3074 3068 3060 3050 3038 3027 3020 3017 3019 3024 3029 3031 3034 3040 3046 3053 3059 3063 3066 3067 3067 3068 3068 3070 3073 3079 3085 3093 3098 3103 3110 3115 3118 3118 3121 3122 3124
3103 3098 3092 3086 3081 3076 3069 3061 3052 3042 3027 3014 3009 3009 3013 3017 3020 3023 3026 3031 3039 3045 3049 3052 3055 3057 3058 3061 3062 3062 3064 3069 3076 3081 3089 3095 3102 3107 3108 3111 3112 3113 3116
3097 3093 3088 3081 3076 3071 3065 3057 3047 3036 3021 3012 3008 3009 3011 3014 3016 3019 3022 3026 3031 3036 3040 3044 3046 3049 3052 3054 3055 3055 3055 3064 3070 3074 3080 3085 3091 3096 3100 3102 3104 3106 3108
3093 3088 3082 3077 3073 3068 3062 3054 3043 3033 3019 3011 3008 3007 3008 3009 3011 3015 3017 3020 3025 3030 3034 3037 3040 3043 3045 3046 3046 3045 3050 3061 3066 3069 3072 3076 3082 3086 3089 3094 3096 3097 3099
3088 3083 3079 3075 3071 3066 3060 3052 3043 3033 3018 3012 3007 3007 3007 3007 3008 3011 3014 3017 3020 3023 3027 3030 3032 3034 3037 3040 3042 3043 3050 3056 3059 3062 3065 3068 3072 3077 3081 3084 3086 3088 3089
3084 3080 3077 3073 3069 3064 3059 3052 3044 3034 3026 3015 3007 3006 3006 3006 3005 3008 3010 3013 3016 3019 3022 3024 3026 3028 3031 3034 3036 3040 3043 3048 3050 3054 3057 3061 3065 3068 3071 3073 3075 3078 3081
3081 3077 3073 3070 3066 3063 3058 3051 3044 3035 3027 3020 3009 3006 3005 3006 3006 3007 3007 3010 3014 3017 3018 3021 3022 3024 3027 3029 3030 3032 3035 3040 3044 3047 3050 3052 3056 3059 3058 3060 3064 3068 3071
3079 3076 3072 3069 3065 3059 3054 3052 3047 3039 3029 3021 3016 3011 3009 3005 3001 2997 2999 3009 3011 3013 3014 3019 3021 3023 3024 3025 3027 3029 3031 3033 3035 3038 3040 3043 3046 3048 3049 3049 3052 3059 3059
3076 3074 3070 3068 3065 3059 3055 3051 3048 3042 3034 3029 3022 3018 3015 3009 3006 3000 2998 3003 3009 3011 3014 3018 3020 3021 3023 3023 3023 3023 3024 3025 3028 3030 3031 3033 3035 3037 3041 3042 3044 3047 3048
3072 3071 3069 3067 3065 3062 3056 3054 3051 3046 3041 3035 3031 3026 3022 3014 3016 3016 3015 3016 3017 3017 3018 3020 3021 3022 3023 3023 3018 3018 3017 3020 3024 3025 3025 3027 3027 3028 3032 3035 3037 3040 3043
3068 3067 3067 3065 3062 3059 3057 3054 3052 3050 3046 3043 3038 3034 3031 3028 3025 3024 3025 3023 3023 3023 3022 3022 3022 3022 3023 3022 3022 3019 3022 3021 3023 3024 3025 3027 3029 3031 3030 3031 3032 3033 3039
3066 3065 3065 3064 3062 3060 3058 3055 3054 3051 3049 3047 3044 3040 3036 3034 3033 3031 3028 3028 3027 3026 3024 3024 3023 3024 3025 3023 3023 3023 3023 3024 3025 3025 3027 3029 3029 3030 3030 3031 3033 3034 3034
3064 3063 3063 3063 3062 3060 3059 3057 3055 3052 3050 3048 3046 3044 3041 3038 3037 3035 3033 3031 3030 3029 3029 3028 3028 3027 3027 3026 3026 3025 3025 3024 3025 3025 3026 3027 3027 3028 3029 3030 3030 3031 3031
3062 3062 3062 3062 3062 3060 3059 3056 3055 3052 3049 3048 3047 3045 3044 3043 3040 3038 3035 3035 3034 3033 3032 3031 3030 3030 3030 3030 3029 3028 3027 3027 3027 3026 3027 3026 3026 3026 3027 3027 3027 3027 3026
3060 3059 3060 3058 3060 3059 3057 3056 3053 3051 3049 3048 3047 3045 3044 3043 3041 3039 3038 3036 3035 3033 3032 3031 3031 3031 3031 3030 3028 3028 3027 3027 3027 3027 3027 3027 3026 3026 3025 3024 3024 3023 3022
3057 3057 3057 3057 3056 3056 3054 3053 3052 3050 3048 3047 3045 3043 3042 3040 3038 3037 3035 3033 3032 3031 3030 3029 3029 3028 3027 3027 3025 3024 3024 3024 3023 3024 3023 3023 3023 3021 3021 3021 3020 3018 3018
3053 3053 3053 3053 3053 3052 3052 3050 3049 3048 3045 3044 3042 3040 3039 3037 3035 3033 3031 3029 3028 3026 3025 3024 3023 3023 3022 3021 3020 3019 3018 3018 3017 3016 3017 3017 3015 3015 3014 3014 3013 3012 3011
3049 3049 3049 3050 3049 3048 3047 3047 3045 3044 3041 3039 3037 3036 3034 3032 3030 3029 3027 3026 3024 3023 3021 3019 3018 3017 3015 3014 3013 3012 3011 3010 3009 3007 3006 3006 3005 3005 3004 3004 3004 3003 3002
3046 3046 3046 3046 3046 3045 3044 3042 3040 3038 3037 3035 3033 3031 3029 3027 3025 3023 3021 3020 3018 3016 3015 3013 3011 3009 3007 3005 3004 3003 3002 3001 2999 2997 2996 2995 2994 2993 2992 2991 2990 2988 2987
3043 3043 3043 3042 3041 3041 3040 3039 3037 3035 3034 3032 3029 3027 3024 3023 3021 3018 3016 3013 3011 3009 3008 3006 3004 3002 3000 2999 2997 2995 2992 2990 2988 2986 2984 2983 2982 2980 2979 2977 2976 2974 2973
Wind_Speed
41 41 41 39 39 39 39 40 41 42 43 45 46 45 45 47 48 46 48 47 43 44 46 47 37 54 44 44 43 45 46 43 43 38 34 32 34 32 32 34 34 32 29
41 41 40 39 38 39 40 40 42 42 42 43 45 47 49 48 50 50 47 45 47 45 39 42 36 45 69 42 43 44 49 47 44 42 35 34 32 31 32 33 33 31 26
44 41 40 40 40 42 43 42 43 43 42 41 42 45 48 48 52 52 50 47 46 44 43 40 36 38 50 57 52 59 53 50 47 44 39 36 31 31 32 31 31 30 27
39 39 40 40 39 41 40 39 38 38 43 43 44 45 45 48 46 51 51 50 47 43 40 37 33 35 32 23 48 44 49 48 47 44 40 38 34 31 33 32 30 29 28
38 39 39 40 42 42 39 37 37 42 45 45 41 43 44 44 44 43 47 50 48 43 38 35 33 34 31 29 40 49 42 46 47 44 42 39 36 32 32 30 31 30 30
37 38 41 42 41 36 34 36 41 42 43 48 48 39 40 40 37 37 41 48 47 45 37 34 33 33 33 34 39 33 46 47 47 46 43 41 37 33 31 31 32 31 29
36 37 39 39 37 30 33 36 38 42 45 53 43 37 31 29 29 30 33 38 40 37 34 31 32 33 32 32 38 38 38 46 47 46 46 41 39 33 31 30 30 30 29
35 35 35 35 26 26 30 31 38 38 50 35 29 21 21 22 23 23 26 29 32 31 31 32 33 32 33 30 36 44 44 49 46 44 44 39 38 33 33 32 32 32 28
34 31 31 25 24 27 28 30 38 36 41 21 12 13 16 17 19 18 19 25 29 29 30 31 32 34 32 31 32 36 36 38 39 40 40 39 38 37 36 35 34 34 31
29 27 24 21 23 28 32 30 34 40 41 11 9 13 14 14 14 14 18 23 25 26 25 27 27 28 32 32 30 30 43 27 28 29 36 39 40 39 37 38 38 35 34
27 26 18 21 26 24 29 30 36 36 35 22 4 8 9 9 11 15 16 19 19 19 22 25 26 26 27 29 29 29 36 32 27 26 23 30 42 42 40 38 40 39 37
23 24 21 22 22 19 27 28 38 30 35 31 7 5 10 13 7 12 12 12 12 12 13 15 18 21 22 22 24 24 28 38 38 38 37 31 30 37 44 46 48 45 41
18 20 23 11 8 16 19 28 36 32 26 34 31 18 8 14 10 14 9 13 14 14 15 14 14 11 14 16 21 23 26 31 36 38 40 39 39 35 30 31 38 38 32
15 17 16 16 18 14 15 23 32 34 28 25 33 29 25 28 24 11 14 10 7 6 6 8 10 10 11 13 14 20 23 27 30 31 32 37 39 36 36 23 35 31 30
16 13 12 17 14 20 14 20 29 30 25 28 23 23 26 28 20 26 27 22 18 12 11 11 5 1 2 7 9 12 18 16 15 19 18 24 29 34 38 38 38 34 26
16 14 14 13 14 19 14 18 21 23 27 28 30 25 25 25 22 19 18 15 13 12 10 4 2 2 3 1 3 15 11 14 18 15 11 8 7 11 17 15 15 21 22
14 14 15 16 18 17 17 14 15 14 16 23 24 25 20 17 16 15 15 14 12 8 6 5 4 3 5 5 6 10 10 14 6 9 2 4 7 5 4 10 13 7 11
10 9 9 7 13 16 16 16 12 11 12 14 20 24 20 18 16 13 11 12 11 10 11 11 11 11 10 7 5 4 6 6 5 1 2 5 8 8 7 10 14 17 18
7 4 5 6 9 8 11 19 18 13 14 12 18 21 23 17 15 15 14 14 14 13 13 14 14 13 14 13 11 10 9 7 4 2 2 3 5 7 7 8 10 12 14
8 4 4 6 6 11 12 16 14 13 6 6 11 16 21 11 7 10 12 11 10 9 9 10 12 11 12 11 9 8 8 7 7 7 7 5 4 4 5 6 8 11 13
10 10 8 10 11 15 9 12 11 12 11 10 13 16 16 13 11 9 8 7 6 6 7 7 7 7 8 9 11 12 10 9 8 9 9 8 8 7 7 10 11 9 9
10 9 10 10 9 7 9 9 11 14 16 11 11 15 18 17 18 18 17 15 14 13 13 13 13 13 13 13 15 12 14 16 12 15 13 14 17 19 23 24 21 18 18
11 11 12 11 11 12 11 12 14 16 21 19 20 20 18 18 18 18 17 17 17 17 18 19 19 19 19 19 21 22 22 22 25 26 25 28 29 29 31 27 26 25 24
12 13 10 8 8 10 14 16 17 19 22 23 22 21 21 21 20 20 19 18 18 19 19 20 22 22 22 22 23 24 25 27 29 30 32 32 32 33 35 35 34 40 41
8 8 9 11 14 16 18 19 20 21 22 22 22 22 22 23 23 23 24 23 23 22 22 22 22 23 25 25 26 25 25 25 26 28 29 31 32 33 34 36 37 39 41
10 12 13 14 15 16 16 17 17 18 18 19 20 21 22 23 24 25 25 26 26 26 26 25 25 26 26 26 27 28 30 31 33 34 34 35 35 36 36 37 37 37 36
Wind_Direction
310 308 308 305 302 299 297 294 291 288 282 277 275 269 261 258 261 260 259 258 260 259 257 263 251 255 251 251 252 251 249 249 255 254 251 249 249 249 249 255 260 263 268
316 314 311 308 306 305 303 301 298 293 288 282 276 272 266 257 255 257 258 259 259 259 263 267 276 262 252 253 248 250 248 247 249 255 250 251 252 247 245 250 259 262 263
314 311 312 312 311 311 307 305 303 299 295 291 281 273 270 265 254 252 254 253 257 259 261 264 275 282 264 257 275 256 241 243 245 250 252 251 249 244 245 244 251 259 265
312 312 313 312 312 314 309 307 306 302 299 294 286 274 267 266 259 251 251 251 254 256 256 260 262 270 272 280 260 250 247 246 243 245 248 250 248 245 246 246 248 256 259
315 314 314 315 314 313 306 304 303 308 307 300 289 277 262 263 259 253 248 250 249 252 255 255 255 259 257 267 232 242 235 244 247 243 245 245 247 245 246 249 249 251 256
315 314 314 319 316 315 312 305 305 303 305 300 303 284 265 252 254 253 246 241 242 246 250 250 248 253 255 251 232 222 221 234 238 243 242 243 246 245 243 248 250 253 257
315 317 317 316 319 313 312 309 311 304 303 293 294 285 259 247 248 254 246 237 238 238 245 243 244 247 255 258 234 234 246 236 236 236 240 239 242 240 240 243 250 254 260
318 320 319 319 323 318 321 322 320 314 321 311 302 272 241 240 246 245 236 231 230 234 239 241 241 238 243 256 247 244 247 227 228 230 236 238 242 241 243 246 248 250 256
318 318 320 318 318 315 321 329 333 336 355 321 299 254 248 251 248 236 231 233 230 231 236 237 241 235 239 253 257 240 222 216 226 227 233 237 240 242 246 245 249 253 255
313 320 321 321 320 326 330 328 339 342 340 348 295 260 257 251 233 235 229 241 244 244 244 245 248 243 242 248 266 246 219 228 231 242 241 238 240 243 245 252 253 253 259
321 324 318 313 322 331 338 342 344 343 344 15 264 252 247 240 233 238 234 239 238 235 236 241 241 242 246 249 253 244 219 223 226 241 248 247 245 243 249 252 254 254 257
327 327 335 325 314 338 347 353 354 353 351 358 55 274 268 277 278 217 218 223 222 226 246 247 255 246 245 246 248 239 235 237 238 242 252 251 254 254 255 252 249 255 256
324 332 332 321 322 350 348 5 3 354 8 1 29 48 252 241 258 260 243 227 245 239 244 250 258 255 250 247 246 248 244 244 242 248 250 251 251 262 256 251 247 244 250
310 323 313 325 306 338 15 359 4 358 15 15 16 29 48 70 67 177 177 186 205 202 171 235 239 248 271 268 260 253 251 251 250 250 248 246 246 248 264 258 236 245 241
303 323 5 345 350 338 5 8 356 355 6 22 26 27 32 42 68 44 68 99 107 130 134 105 116 124 328 257 219 232 249 238 243 245 242 240 243 248 257 261 258 267 262
307 292 314 345 353 329 346 343 352 353 2 18 19 32 25 32 53 46 51 48 59 63 67 86 74 20 345 272 108 38 46 167 199 167 171 179 182 194 202 205 212 217 232
308 299 288 309 330 343 347 341 337 357 3 11 19 15 33 44 46 52 55 50 57 72 62 48 21 352 337 351 341 5 19 359 343 232 15 255 235 242 280 268 245 250 249
296 296 299 315 323 339 3 10 360 2 6 13 23 25 22 22 33 43 46 46 43 41 41 39 35 35 40 30 10 313 289 295 313 156 227 237 253 249 243 242 239 242 251
289 313 341 329 323 320 16 358 7 357 6 12 10 9 19 28 28 30 36 37 43 38 35 36 31 28 36 41 47 49 38 19 323 277 251 252 242 247 250 251 254 253 253
292 284 303 330 324 341 344 344 350 345 341 352 336 355 4 22 355 14 26 26 22 17 13 11 11 11 11 8 25 24 23 28 24 11 355 330 297 278 265 265 264 265 264
289 277 280 279 297 312 328 342 340 353 334 320 325 325 335 2 14 17 358 340 332 319 319 321 318 317 316 307 322 340 328 329 327 324 318 305 302 302 311 309 302 299 300
277 290 286 285 293 315 332 326 328 327 339 328 327 331 333 338 338 335 333 329 321 313 307 300 293 288 285 287 291 290 290 292 291 285 283 278 291 286 286 296 286 278 280
271 281 289 290 302 316 321 309 318 315 315 321 323 325 324 324 325 325 324 323 321 318 315 311 307 302 298 292 289 286 280 274 269 274 273 277 276 271 279 282 275 271 280
280 279 280 293 289 292 296 295 297 304 314 316 317 319 322 325 325 324 321 319 317 315 312 308 305 303 300 297 293 288 284 282 280 280 280 275 271 272 274 273 267 267 273
265 271 271 266 275 287 296 301 303 304 308 314 318 319 321 323 324 324 323 321 320 318 316 312 310 308 307 305 303 299 295 291 288 287 286 285 284 283 282 279 277 276 276
270 279 285 287 290 294 295 292 294 299 303 306 311 314 316 317 317 318 319 319 319 319 318 315 312 309 306 302 298 296 295 295 295 294 291 290 288 287 286 285 283 282 281